Вернуться в каталог

STARLINK-5054

АктивенСвязьVLEO
NORAD 53906·PAYLOAD·🇺🇸 United States

Запущен Sep 24, 2022 с Cape Canaveral Space Force Station

Loading…

Ближайшие Пролёты (ближайшие 24 часа)

TLE

СвежийSource: CelesTrak SupGP

Эпоха: Sep 15, 2026, 02:20 UTC

1 53906C 22119W   26258.09770833 -.00004431  00000+0 -27799-3 0  2586
2 53906  53.1590 182.9216 0001400  86.2322 256.0265 15.08824132    16

Отслеживайте STARLINK-5054 в реальном времени с AllMySat

Download on the App Store